SM7GXQ Weather Reports


time (UTC)temp
C
wind
direction
speed
KPH
gust
KPH
rain 1hr
cm
rain 24hr
cm
rain mn
cm
humidity
%
barometer
mb
20260507040004 2 50 3.2 4.8 0.00 0.00 0.00 86 1013.1
20260507034504 1 48 1.6 4.8 0.00 0.00 0.00 84 1013.1
20260507030004 2 46 0.0 1.6 0.00 0.00 0.00 80 1012.8
20260507020003 1 51 3.2 4.8 0.00 0.00 0.00 85 1012.6
20260507010003 1 51 0.0 0.0 0.00 0.00 0.00 83 1012.5
20260507001503 1 50 3.2 4.8 0.00 0.00 0.00 84 1012.5
20260507000004 2 50 0.0 3.2 0.00 0.00 0.00 82 1012.5
20260506224504 2 50 0.0 0.0 0.00 0.00 0.00 79 1012.4
20260506221505 3 50 0.0 3.2 0.00 0.00 0.00 77 1012.2
20260506211504 3 50 0.0 3.2 0.00 0.00 0.00 72 1011.9
20260506210004 5 50 0.0 0.0 0.00 0.00 0.00 70 1011.9
20260506201504 6 50 0.0 0.0 0.00 0.00 0.00 62 1011.9
20260506200004 6 50 0.0 4.8 0.00 0.00 0.00 61 1011.9
20260506191504 7 71 1.6 4.8 0.00 0.00 0.00 54 1011.8
20260506190005 8 63 1.6 8.0 0.00 0.00 0.00 51 1011.4
20260506180006 8 70 6.4 19.3 0.00 0.00 0.00 48 1011.2
20260506173005 8 67 11.3 19.3 0.00 0.00 0.00 44 1011.2
20260506164505 9 80 8.0 19.3 0.00 0.00 0.00 47 1011.5
20260506154504 9 77 8.0 24.1 0.00 0.00 0.00 46 1011.3
20260506151504 10 82 8.0 20.9 0.00 0.00 0.00 51 1011.3
20260506144504 10 68 12.9 22.5 0.00 0.00 0.00 51 1011.3
20260506134504 10 111 11.3 27.4 0.00 0.00 0.00 47 1011.2
20260506133005 10 108 8.0 22.5 0.00 0.00 0.00 46 1011.2
20260506123005 11 68 14.5 27.4 0.00 0.00 0.00 42 1011.2
20260506120004 11 75 14.5 22.5 0.00 0.00 0.00 42 1011.3
20260506114504 11 59 9.7 32.2 0.00 0.00 0.00 45 1011.4
20260506111505 11 92 8.0 22.5 0.00 0.00 0.00 47 1011.6
20260506110004 10 86 11.3 20.9 0.00 0.00 0.00 47 1011.6
20260506104505 10 69 11.3 24.1 0.00 0.00 0.00 48 1011.7
20260506103005 10 78 11.3 24.1 0.00 0.00 0.00 48 1011.8
20260506100006 10 69 12.9 24.1 0.00 0.00 0.00 50 1011.7
20260506094504 10 84 14.5 22.5 0.00 0.00 0.00 49 1011.6
20260506091504 10 86 6.4 20.9 0.00 0.00 0.00 52 1011.6
20260506090004 10 66 11.3 22.5 0.00 0.00 0.00 49 1011.6
20260506083005 10 75 6.4 20.9 0.00 0.00 0.00 51 1011.3
20260506081505 10 91 4.8 19.3 0.00 0.00 0.00 52 1011.3
20260506071504 10 85 11.3 19.3 0.00 0.00 0.00 51 1011.3